Location: Alfortville
(48.8058°N, 2.4204°E)
Time: 03:51:03
(UTC+00:00)

Cosmos 1980 Rocket - Pass Details

Date: 30 May 2022
Orbit: 827 x 851 km, 71.0° (Epoch: 06 July)

Event Time Altitude Azimuth Distance (km) Brightness Sun altitude
Rises 02:40:06 0° 334° (NNW) 3,422 5.7 -9.7°
Reaches altitude 10° 02:44:05 10° 2° (N) 2,487 5.5 -9.2°
Maximum altitude 02:46:43 13° 29° (NNE) 2,267 5.9 -9.0°
Drops below altitude 10° 02:49:20 10° 57° (ENE) 2,486 6.1 -8.7°
Sets 02:53:19 0° 84° (E) 3,419 6.2 -8.2°
